Time,TemperatureF,DewpointF,PressureIn,WindDirection,WindDirectionDegrees,WindSpeedMPH,WindSpeedGustMPH,Humidity,HourlyPrecipIn,Conditions,Clouds,dailyrainin,SoftwareType,DateUTC
2014-08-30 00:00:00,73.9,61.9,30.36,NE,36,0.0,0.0,66,0.00,,---,0.00,VWS V15.00,2014-08-30 04:00:00,
2014-08-30 00:01:00,73.9,61.9,30.36,NE,36,0.0,0.0,66,0.00,,---,0.00,VWS V15.00,2014-08-30 04:01:00,
2014-08-30 00:06:00,73.9,61.9,30.36,NE,36,0.0,0.0,66,0.00,,---,0.00,VWS V15.00,2014-08-30 04:06:00,
2014-08-30 00:11:00,73.9,62.3,30.36,NNE,30,3.1,3.1,67,0.00,,---,0.00,VWS V15.00,2014-08-30 04:11:00,
2014-08-30 00:16:00,73.8,62.1,30.36,NNE,21,0.0,0.0,67,0.00,,---,0.00,VWS V15.00,2014-08-30 04:16:00,
2014-08-30 00:17:00,73.8,62.1,30.36,NNE,21,0.0,0.0,67,0.00,,---,0.00,VWS V15.00,2014-08-30 04:17:00,
2014-08-30 00:21:00,73.9,62.7,30.36,North,5,0.0,0.0,68,0.00,,---,0.00,VWS V15.00,2014-08-30 04:21:00,
2014-08-30 00:22:00,73.9,62.7,30.36,North,5,0.0,0.0,68,0.00,,---,0.00,VWS V15.00,2014-08-30 04:22:00,
2014-08-30 00:26:00,73.9,62.7,30.36,North,5,0.0,0.0,68,0.00,,---,0.00,VWS V15.00,2014-08-30 04:26:00,
2014-08-30 00:27:00,73.9,62.7,30.36,North,5,0.0,0.0,68,0.00,,---,0.00,VWS V15.00,2014-08-30 04:27:00,
2014-08-30 00:31:00,73.9,63.1,30.36,North,5,0.0,0.0,69,0.00,,---,0.00,VWS V15.00,2014-08-30 04:31:00,
2014-08-30 00:32:00,73.9,63.1,30.36,North,5,0.0,0.0,69,0.00,,---,0.00,VWS V15.00,2014-08-30 04:32:00,
2014-08-30 00:36:00,73.9,63.1,30.36,North,4,0.0,0.0,69,0.00,,---,0.00,VWS V15.00,2014-08-30 04:36:00,
2014-08-30 00:37:00,73.9,63.1,30.36,North,4,0.0,0.0,69,0.00,,---,0.00,VWS V15.00,2014-08-30 04:37:00,
2014-08-30 00:41:00,73.9,63.1,30.36,North,4,0.0,0.0,69,0.00,,---,0.00,VWS V15.00,2014-08-30 04:41:00,
2014-08-30 00:42:00,73.9,63.1,30.36,North,4,0.0,0.0,69,0.00,,---,0.00,VWS V15.00,2014-08-30 04:42:00,
2014-08-30 00:46:00,73.8,63.4,30.36,North,3,0.0,0.0,70,0.00,,---,0.00,VWS V15.00,2014-08-30 04:46:00,
2014-08-30 00:47:00,73.9,63.5,30.36,North,4,0.0,0.0,70,0.00,,---,0.00,VWS V15.00,2014-08-30 04:47:00,
2014-08-30 00:51:00,73.9,63.5,30.36,North,0,0.0,0.0,70,0.00,,---,0.00,VWS V15.00,2014-08-30 04:51:00,
2014-08-30 00:52:00,73.9,63.5,30.36,North,0,0.0,0.0,70,0.00,,---,0.00,VWS V15.00,2014-08-30 04:52:00,
2014-08-30 00:56:00,73.9,64.0,30.36,North,0,0.0,0.0,71,0.00,,---,0.00,VWS V15.00,2014-08-30 04:56:00,
2014-08-30 00:57:00,73.9,64.0,30.36,North,0,0.0,0.0,71,0.00,,---,0.00,VWS V15.00,2014-08-30 04:57:00,
2014-08-30 00:58:00,73.9,64.0,30.36,North,0,0.0,0.0,71,0.00,,---,0.00,VWS V15.00,2014-08-30 04:58:00,
2014-08-30 01:01:00,73.9,64.8,30.36,North,0,0.0,0.0,73,0.00,,---,0.00,VWS V15.00,2014-08-30 05:01:00,
2014-08-30 01:02:00,73.9,64.8,30.36,North,0,0.0,0.0,73,0.00,,---,0.00,VWS V15.00,2014-08-30 05:02:00,
2014-08-30 01:03:00,73.9,64.8,30.36,North,0,0.0,0.0,73,0.00,,---,0.00,VWS V15.00,2014-08-30 05:03:00,
2014-08-30 01:06:00,74.1,64.9,30.36,North,0,0.0,0.0,73,0.00,,---,0.00,VWS V15.00,2014-08-30 05:06:00,
2014-08-30 01:07:00,74.1,64.9,30.36,North,0,0.0,0.0,73,0.00,,---,0.00,VWS V15.00,2014-08-30 05:07:00,
2014-08-30 01:08:00,74.1,64.9,30.36,North,0,0.0,0.0,73,0.00,,---,0.00,VWS V15.00,2014-08-30 05:08:00,
2014-08-30 01:11:00,74.1,65.3,30.36,North,0,0.0,0.0,74,0.00,,---,0.00,VWS V15.00,2014-08-30 05:11:00,
2014-08-30 01:12:00,74.1,65.3,30.36,North,0,0.0,0.0,74,0.00,,---,0.00,VWS V15.00,2014-08-30 05:12:00,
2014-08-30 01:13:00,74.1,65.3,30.36,North,0,0.0,0.0,74,0.00,,---,0.00,VWS V15.00,2014-08-30 05:13:00,
2014-08-30 01:16:00,74.1,65.3,30.36,North,0,0.0,0.0,74,0.00,,---,0.00,VWS V15.00,2014-08-30 05:16:00,
2014-08-30 01:17:00,74.1,65.7,30.36,North,0,0.0,0.0,75,0.00,,---,0.00,VWS V15.00,2014-08-30 05:17:00,
2014-08-30 01:18:00,74.3,65.9,30.36,North,0,0.0,0.0,75,0.00,,---,0.00,VWS V15.00,2014-08-30 05:18:00,
2014-08-30 01:21:00,74.3,66.6,30.36,North,0,0.0,0.0,77,0.00,,---,0.00,VWS V15.00,2014-08-30 05:21:00,
2014-08-30 01:22:00,74.3,66.6,30.36,North,0,0.0,0.0,77,0.00,,---,0.00,VWS V15.00,2014-08-30 05:22:00,
2014-08-30 01:23:00,74.3,66.6,30.36,North,0,0.0,0.0,77,0.00,,---,0.00,VWS V15.00,2014-08-30 05:23:00,
2014-08-30 01:26:00,74.1,66.5,30.36,North,0,0.0,0.0,77,0.00,,---,0.00,VWS V15.00,2014-08-30 05:26:00,
2014-08-30 01:27:00,74.1,66.5,30.36,North,0,0.0,0.0,77,0.00,,---,0.00,VWS V15.00,2014-08-30 05:27:00,
2014-08-30 01:28:00,74.1,66.5,30.36,North,0,0.0,0.0,77,0.00,,---,0.00,VWS V15.00,2014-08-30 05:28:00,
2014-08-30 01:31:00,74.1,66.5,30.36,North,0,0.0,0.0,77,0.00,,---,0.00,VWS V15.00,2014-08-30 05:31:00,
2014-08-30 01:32:00,74.1,66.5,30.36,North,0,0.0,0.0,77,0.00,,---,0.00,VWS V15.00,2014-08-30 05:32:00,
2014-08-30 01:33:00,74.1,66.5,30.36,North,0,0.0,0.0,77,0.00,,---,0.00,VWS V15.00,2014-08-30 05:33:00,
2014-08-30 01:36:00,74.1,66.5,30.36,North,0,0.0,0.0,77,0.00,,---,0.00,VWS V15.00,2014-08-30 05:36:00,
2014-08-30 01:37:00,74.1,66.5,30.36,North,0,0.0,0.0,77,0.00,,---,0.00,VWS V15.00,2014-08-30 05:37:00,
2014-08-30 01:38:00,74.1,66.5,30.36,North,0,0.0,0.0,77,0.00,,---,0.00,VWS V15.00,2014-08-30 05:38:00,
2014-08-30 01:41:00,74.1,66.8,30.36,North,0,0.0,0.0,78,0.00,,---,0.00,VWS V15.00,2014-08-30 05:41:00,
2014-08-30 01:42:00,74.1,66.8,30.36,North,0,0.0,0.0,78,0.00,,---,0.00,VWS V15.00,2014-08-30 05:42:00,
2014-08-30 01:43:00,74.1,66.8,30.36,North,0,0.0,0.0,78,0.00,,---,0.00,VWS V15.00,2014-08-30 05:43:00,
2014-08-30 01:46:00,73.9,66.7,30.36,North,0,0.0,0.0,78,0.00,,---,0.00,VWS V15.00,2014-08-30 05:46:00,
2014-08-30 01:47:00,73.9,66.7,30.36,North,0,0.0,0.0,78,0.00,,---,0.00,VWS V15.00,2014-08-30 05:47:00,
2014-08-30 01:48:00,73.9,66.7,30.36,North,0,0.0,0.0,78,0.00,,---,0.00,VWS V15.00,2014-08-30 05:48:00,
2014-08-30 01:49:00,73.9,66.7,30.36,North,0,0.0,0.0,78,0.00,,---,0.00,VWS V15.00,2014-08-30 05:49:00,
2014-08-30 01:51:00,73.8,66.5,30.36,North,0,0.0,0.0,78,0.00,,---,0.00,VWS V15.00,2014-08-30 05:51:00,
2014-08-30 01:52:00,73.8,66.5,30.36,North,0,0.0,0.0,78,0.00,,---,0.00,VWS V15.00,2014-08-30 05:52:00,
2014-08-30 01:53:00,73.8,66.5,30.36,North,0,0.0,0.0,78,0.00,,---,0.00,VWS V15.00,2014-08-30 05:53:00,
2014-08-30 01:54:00,73.8,66.5,30.36,North,0,0.0,0.0,78,0.00,,---,0.00,VWS V15.00,2014-08-30 05:54:00,
2014-08-30 01:56:00,73.8,66.5,30.36,North,0,0.0,0.0,78,0.00,,---,0.00,VWS V15.00,2014-08-30 05:56:00,
2014-08-30 01:57:00,73.8,66.5,30.36,North,0,0.0,0.0,78,0.00,,---,0.00,VWS V15.00,2014-08-30 05:57:00,
2014-08-30 01:58:00,73.8,66.5,30.36,North,0,0.0,0.0,78,0.00,,---,0.00,VWS V15.00,2014-08-30 05:58:00,
2014-08-30 01:59:00,73.8,66.5,30.36,North,0,0.0,0.0,78,0.00,,---,0.00,VWS V15.00,2014-08-30 05:59:00,
2014-08-30 02:01:00,73.8,66.5,30.36,North,0,0.0,0.0,78,0.00,,---,0.00,VWS V15.00,2014-08-30 06:01:00,
2014-08-30 02:02:00,73.8,66.8,30.36,North,0,0.0,0.0,79,0.00,,---,0.00,VWS V15.00,2014-08-30 06:02:00,
2014-08-30 02:03:00,73.8,66.8,30.36,North,0,0.0,0.0,79,0.00,,---,0.00,VWS V15.00,2014-08-30 06:03:00,
2014-08-30 02:04:00,73.8,66.8,30.36,North,0,0.0,0.0,79,0.00,,---,0.00,VWS V15.00,2014-08-30 06:04:00,
2014-08-30 02:06:00,73.8,67.2,30.36,North,0,0.0,0.0,80,0.00,,---,0.00,VWS V15.00,2014-08-30 06:06:00,
2014-08-30 02:07:00,73.8,67.2,30.36,North,0,0.0,0.0,80,0.00,,---,0.00,VWS V15.00,2014-08-30 06:07:00,
2014-08-30 02:08:00,73.8,67.2,30.36,North,0,0.0,0.0,80,0.00,,---,0.00,VWS V15.00,2014-08-30 06:08:00,
2014-08-30 02:09:00,73.8,67.2,30.36,NW,313,0.0,0.0,80,0.00,,---,0.00,VWS V15.00,2014-08-30 06:09:00,
2014-08-30 02:10:00,73.8,67.2,30.36,NW,313,0.0,0.0,80,0.00,,---,0.00,VWS V15.00,2014-08-30 06:10:00,
2014-08-30 02:11:00,73.8,67.2,30.36,North,0,0.0,0.0,80,0.00,,---,0.00,VWS V15.00,2014-08-30 06:11:00,
2014-08-30 02:12:00,73.8,67.2,30.36,North,0,0.0,0.0,80,0.00,,---,0.00,VWS V15.00,2014-08-30 06:12:00,
2014-08-30 02:13:00,73.8,67.2,30.36,NNW,330,0.0,0.0,80,0.00,,---,0.00,VWS V15.00,2014-08-30 06:13:00,
2014-08-30 02:14:00,73.8,67.2,30.36,NNW,330,0.0,0.0,80,0.00,,---,0.00,VWS V15.00,2014-08-30 06:14:00,
2014-08-30 02:15:00,73.8,67.2,30.36,NNW,330,0.0,0.0,80,0.00,,---,0.00,VWS V15.00,2014-08-30 06:15:00,
2014-08-30 02:16:00,73.8,67.2,30.36,NNW,330,0.0,0.0,80,0.00,,---,0.00,VWS V15.00,2014-08-30 06:16:00,
2014-08-30 02:17:00,73.8,67.2,30.36,NNW,330,0.0,0.0,80,0.00,,---,0.00,VWS V15.00,2014-08-30 06:17:00,
2014-08-30 02:18:00,73.8,67.6,30.36,NNW,330,0.0,0.0,81,0.00,,---,0.00,VWS V15.00,2014-08-30 06:18:00,
2014-08-30 02:19:00,73.8,67.6,30.36,NNW,330,0.0,0.0,81,0.00,,---,0.00,VWS V15.00,2014-08-30 06:19:00,
2014-08-30 02:20:00,73.8,67.2,30.36,NNW,330,0.0,0.0,80,0.00,,---,0.00,VWS V15.00,2014-08-30 06:20:00,
2014-08-30 02:21:00,73.8,67.2,30.36,NNW,330,0.0,0.0,80,0.00,,---,0.00,VWS V15.00,2014-08-30 06:21:00,
2014-08-30 02:22:00,73.8,67.2,30.36,NNW,330,0.0,0.0,80,0.00,,---,0.00,VWS V15.00,2014-08-30 06:22:00,
2014-08-30 02:23:00,73.8,67.2,30.36,NNW,330,0.0,0.0,80,0.00,,---,0.00,VWS V15.00,2014-08-30 06:23:00,
2014-08-30 02:24:00,73.8,67.2,30.36,NNW,330,0.0,0.0,80,0.00,,---,0.00,VWS V15.00,2014-08-30 06:24:00,
2014-08-30 02:25:00,73.8,67.2,30.36,NNW,330,0.0,0.0,80,0.00,,---,0.00,VWS V15.00,2014-08-30 06:25:00,
2014-08-30 02:26:00,73.8,67.2,30.36,NNW,330,0.0,0.0,80,0.00,,---,0.00,VWS V15.00,2014-08-30 06:26:00,
2014-08-30 02:27:00,73.8,67.2,30.36,NNW,330,0.0,0.0,80,0.00,,---,0.00,VWS V15.00,2014-08-30 06:27:00,
2014-08-30 02:28:00,73.6,67.0,30.36,NNW,330,0.0,0.0,80,0.00,,---,0.00,VWS V15.00,2014-08-30 06:28:00,
2014-08-30 02:29:00,73.6,67.0,30.36,NNW,330,0.0,0.0,80,0.00,,---,0.00,VWS V15.00,2014-08-30 06:29:00,
2014-08-30 02:30:00,73.6,67.0,30.36,NNW,330,0.0,0.0,80,0.00,,---,0.00,VWS V15.00,2014-08-30 06:30:00,
2014-08-30 02:31:00,73.6,67.0,30.36,NNW,330,0.0,0.0,80,0.00,,---,0.00,VWS V15.00,2014-08-30 06:31:00,
2014-08-30 02:32:00,73.6,67.4,30.36,NE,37,0.0,0.0,81,0.00,,---,0.00,VWS V15.00,2014-08-30 06:32:00,
2014-08-30 02:33:00,73.6,67.4,30.36,North,0,0.0,0.0,81,0.00,,---,0.00,VWS V15.00,2014-08-30 06:33:00,
2014-08-30 02:34:00,73.6,67.4,30.36,North,357,0.0,0.0,81,0.00,,---,0.00,VWS V15.00,2014-08-30 06:34:00,
2014-08-30 02:35:00,73.6,67.4,30.36,NNW,336,0.0,0.0,81,0.00,,---,0.00,VWS V15.00,2014-08-30 06:35:00,
2014-08-30 02:36:00,73.6,67.4,30.36,North,357,0.0,0.0,81,0.00,,---,0.00,VWS V15.00,2014-08-30 06:36:00,
2014-08-30 02:37:00,73.6,67.4,30.36,North,357,0.0,0.0,81,0.00,,---,0.00,VWS V15.00,2014-08-30 06:37:00,
2014-08-30 02:38:00,73.6,67.4,30.36,North,357,0.0,0.0,81,0.00,,---,0.00,VWS V15.00,2014-08-30 06:38:00,
2014-08-30 02:39:00,73.6,67.4,30.36,North,357,0.0,0.0,81,0.00,,---,0.00,VWS V15.00,2014-08-30 06:39:00,
2014-08-30 02:40:00,73.6,67.4,30.36,North,357,0.0,0.0,81,0.00,,---,0.00,VWS V15.00,2014-08-30 06:40:00,
2014-08-30 02:41:00,73.8,67.9,30.36,North,353,0.0,0.0,82,0.00,,---,0.00,VWS V15.00,2014-08-30 06:41:00,
2014-08-30 02:42:00,73.8,67.9,30.36,North,353,0.0,0.0,82,0.00,,---,0.00,VWS V15.00,2014-08-30 06:42:00,
2014-08-30 02:43:00,73.6,67.8,30.36,North,353,0.0,0.0,82,0.00,,---,0.00,VWS V15.00,2014-08-30 06:43:00,
2014-08-30 02:44:00,73.6,67.8,30.36,North,353,0.0,0.0,82,0.00,,---,0.00,VWS V15.00,2014-08-30 06:44:00,
2014-08-30 02:45:00,73.6,67.8,30.36,North,353,0.0,0.0,82,0.00,,---,0.00,VWS V15.00,2014-08-30 06:45:00,
2014-08-30 02:46:00,73.6,67.8,30.36,North,353,0.0,0.0,82,0.00,,---,0.00,VWS V15.00,2014-08-30 06:46:00,
2014-08-30 02:47:00,73.6,67.8,30.36,NNW,344,0.0,0.0,82,0.00,,---,0.00,VWS V15.00,2014-08-30 06:47:00,
2014-08-30 02:49:00,73.6,67.8,30.36,NW,319,0.0,0.0,82,0.00,,---,0.00,VWS V15.00,2014-08-30 06:49:00,
2014-08-30 02:50:00,73.6,67.8,30.36,NNW,343,0.0,0.0,82,0.00,,---,0.00,VWS V15.00,2014-08-30 06:50:00,
2014-08-30 02:51:00,73.6,67.8,30.36,NNW,343,0.0,0.0,82,0.00,,---,0.00,VWS V15.00,2014-08-30 06:51:00,
2014-08-30 02:52:00,73.4,67.6,30.36,NNW,343,0.0,0.0,82,0.00,,---,0.00,VWS V15.00,2014-08-30 06:52:00,
2014-08-30 02:54:00,73.4,67.6,30.36,NNW,343,0.0,0.0,82,0.00,,---,0.00,VWS V15.00,2014-08-30 06:54:00,
2014-08-30 02:55:00,73.4,67.6,30.36,NNW,343,0.0,0.0,82,0.00,,---,0.00,VWS V15.00,2014-08-30 06:55:00,
2014-08-30 02:56:00,73.4,67.6,30.36,NNW,333,0.0,0.0,82,0.00,,---,0.00,VWS V15.00,2014-08-30 06:56:00,
2014-08-30 02:57:00,73.4,67.6,30.36,NNW,333,0.0,0.0,82,0.00,,---,0.00,VWS V15.00,2014-08-30 06:57:00,
2014-08-30 02:59:00,73.4,67.6,30.36,NNW,333,0.0,0.0,82,0.00,,---,0.00,VWS V15.00,2014-08-30 06:59:00,
2014-08-30 03:00:00,73.4,67.6,30.36,North,0,0.0,0.0,82,0.00,,---,0.00,VWS V15.00,2014-08-30 07:00:00,
2014-08-30 03:01:00,73.2,67.4,30.36,North,0,0.0,0.0,82,0.00,,---,0.00,VWS V15.00,2014-08-30 07:01:00,
2014-08-30 03:02:00,73.2,67.4,30.36,NNW,342,0.0,0.0,82,0.00,,---,0.00,VWS V15.00,2014-08-30 07:02:00,
2014-08-30 03:04:00,73.2,67.4,30.36,NNW,342,0.0,0.0,82,0.00,,---,0.00,VWS V15.00,2014-08-30 07:04:00,
2014-08-30 03:05:00,73.2,67.4,30.36,NNW,342,0.0,0.0,82,0.00,,---,0.00,VWS V15.00,2014-08-30 07:05:00,
2014-08-30 03:06:00,73.2,67.4,30.36,NNW,330,0.0,0.0,82,0.00,,---,0.00,VWS V15.00,2014-08-30 07:06:00,
2014-08-30 03:07:00,73.2,67.8,30.36,NNW,331,0.0,0.0,83,0.00,,---,0.00,VWS V15.00,2014-08-30 07:07:00,
2014-08-30 03:09:00,73.0,67.6,30.36,North,353,0.0,0.0,83,0.00,,---,0.00,VWS V15.00,2014-08-30 07:09:00,
2014-08-30 03:10:00,73.0,67.6,30.36,NNW,332,0.0,0.0,83,0.00,,---,0.00,VWS V15.00,2014-08-30 07:10:00,
2014-08-30 03:11:00,73.0,67.6,30.36,NNW,344,0.0,0.0,83,0.00,,---,0.00,VWS V15.00,2014-08-30 07:11:00,
2014-08-30 03:12:00,73.0,67.6,30.36,NNW,344,0.0,0.0,83,0.00,,---,0.00,VWS V15.00,2014-08-30 07:12:00,
2014-08-30 03:14:00,73.0,67.6,30.36,NNW,335,0.0,0.0,83,0.00,,---,0.00,VWS V15.00,2014-08-30 07:14:00,
2014-08-30 03:15:00,73.0,67.6,30.36,NNW,335,0.0,0.0,83,0.00,,---,0.00,VWS V15.00,2014-08-30 07:15:00,
2014-08-30 03:16:00,73.0,67.6,30.36,NNW,335,0.0,0.0,83,0.00,,---,0.00,VWS V15.00,2014-08-30 07:16:00,
2014-08-30 03:17:00,73.0,67.6,30.36,NNW,335,0.0,0.0,83,0.00,,---,0.00,VWS V15.00,2014-08-30 07:17:00,
2014-08-30 03:19:00,73.0,67.6,30.36,NNW,335,0.0,0.0,83,0.00,,---,0.00,VWS V15.00,2014-08-30 07:19:00,
2014-08-30 03:20:00,73.0,67.6,30.36,NNW,335,0.0,0.0,83,0.00,,---,0.00,VWS V15.00,2014-08-30 07:20:00,
2014-08-30 03:21:00,72.9,67.4,30.36,NNW,335,0.0,0.0,83,0.00,,---,0.00,VWS V15.00,2014-08-30 07:21:00,
2014-08-30 03:23:00,72.9,67.4,30.36,NNW,335,0.0,0.0,83,0.00,,---,0.00,VWS V15.00,2014-08-30 07:23:00,
2014-08-30 03:24:00,72.9,67.4,30.36,NNW,335,0.0,0.0,83,0.00,,---,0.00,VWS V15.00,2014-08-30 07:24:00,
2014-08-30 03:25:00,72.9,67.4,30.36,NNW,335,0.0,0.0,83,0.00,,---,0.00,VWS V15.00,2014-08-30 07:25:00,
2014-08-30 03:26:00,72.9,67.4,30.36,NNW,335,2.2,2.2,83,0.00,,---,0.00,VWS V15.00,2014-08-30 07:26:00,
2014-08-30 03:27:00,72.9,67.4,30.36,NNW,335,2.2,2.2,83,0.00,,---,0.00,VWS V15.00,2014-08-30 07:27:00,
2014-08-30 03:28:00,72.9,67.4,30.36,NNW,327,0.0,2.2,83,0.00,,---,0.00,VWS V15.00,2014-08-30 07:28:00,
2014-08-30 03:29:00,72.9,67.4,30.36,North,350,0.0,0.0,83,0.00,,---,0.00,VWS V15.00,2014-08-30 07:29:00,
2014-08-30 03:30:00,72.7,67.2,30.36,North,350,0.0,0.0,83,0.00,,---,0.00,VWS V15.00,2014-08-30 07:30:00,
2014-08-30 03:31:00,72.7,67.2,30.36,North,350,0.0,0.0,83,0.00,,---,0.00,VWS V15.00,2014-08-30 07:31:00,
2014-08-30 03:32:00,72.7,67.2,30.36,North,349,0.0,0.0,83,0.00,,---,0.00,VWS V15.00,2014-08-30 07:32:00,
2014-08-30 03:33:00,72.7,67.2,30.36,North,349,0.0,0.0,83,0.00,,---,0.00,VWS V15.00,2014-08-30 07:33:00,
2014-08-30 03:34:00,72.7,67.2,30.36,North,349,0.0,0.0,83,0.00,,---,0.00,VWS V15.00,2014-08-30 07:34:00,
2014-08-30 03:36:00,72.7,67.2,30.36,North,349,0.0,0.0,83,0.00,,---,0.00,VWS V15.00,2014-08-30 07:36:00,
2014-08-30 03:37:00,72.7,67.2,30.36,North,349,0.0,0.0,83,0.00,,---,0.00,VWS V15.00,2014-08-30 07:37:00,
2014-08-30 03:38:00,72.7,67.2,30.36,North,349,0.0,0.0,83,0.00,,---,0.00,VWS V15.00,2014-08-30 07:38:00,
2014-08-30 03:39:00,72.7,67.6,30.36,NNW,338,0.0,0.0,84,0.00,,---,0.00,VWS V15.00,2014-08-30 07:39:00,
2014-08-30 03:41:00,72.7,67.6,30.36,NNW,340,0.0,0.0,84,0.00,,---,0.00,VWS V15.00,2014-08-30 07:41:00,
2014-08-30 03:42:00,72.7,67.6,30.36,NNW,341,0.0,0.0,84,0.00,,---,0.00,VWS V15.00,2014-08-30 07:42:00,
2014-08-30 03:43:00,72.7,67.6,30.36,NNW,341,0.0,0.0,84,0.00,,---,0.00,VWS V15.00,2014-08-30 07:43:00,
2014-08-30 03:44:00,72.7,67.6,30.33,NNW,341,0.0,0.0,84,0.00,,---,0.00,VWS V15.00,2014-08-30 07:44:00,
2014-08-30 03:46:00,72.7,67.6,30.33,North,353,0.0,0.0,84,0.00,,---,0.00,VWS V15.00,2014-08-30 07:46:00,
2014-08-30 03:47:00,72.7,67.6,30.33,North,353,0.0,0.0,84,0.00,,---,0.00,VWS V15.00,2014-08-30 07:47:00,
2014-08-30 03:48:00,72.7,67.6,30.33,North,353,0.0,0.0,84,0.00,,---,0.00,VWS V15.00,2014-08-30 07:48:00,
2014-08-30 03:49:00,72.7,67.6,30.33,North,353,0.0,0.0,84,0.00,,---,0.00,VWS V15.00,2014-08-30 07:49:00,
2014-08-30 03:51:00,72.7,67.6,30.33,NNW,341,0.0,0.0,84,0.00,,---,0.00,VWS V15.00,2014-08-30 07:51:00,
2014-08-30 03:52:00,72.7,67.6,30.33,NNW,341,0.0,0.0,84,0.00,,---,0.00,VWS V15.00,2014-08-30 07:52:00,
2014-08-30 03:53:00,72.7,67.6,30.33,NNW,341,0.0,0.0,84,0.00,,---,0.00,VWS V15.00,2014-08-30 07:53:00,
2014-08-30 03:55:00,72.7,67.6,30.36,NNW,341,0.0,0.0,84,0.00,,---,0.00,VWS V15.00,2014-08-30 07:55:00,
2014-08-30 03:56:00,72.7,67.6,30.36,NNW,341,0.0,0.0,84,0.00,,---,0.00,VWS V15.00,2014-08-30 07:56:00,
2014-08-30 03:57:00,72.7,67.6,30.36,NNW,341,0.0,0.0,84,0.00,,---,0.00,VWS V15.00,2014-08-30 07:57:00,
2014-08-30 03:58:00,72.7,67.6,30.36,NNW,341,0.0,0.0,84,0.00,,---,0.00,VWS V15.00,2014-08-30 07:58:00,
2014-08-30 04:00:00,72.7,67.6,30.36,NNW,341,0.0,0.0,84,0.00,,---,0.00,VWS V15.00,2014-08-30 08:00:00,
2014-08-30 04:01:00,72.7,67.6,30.36,NNW,341,0.0,0.0,84,0.00,,---,0.00,VWS V15.00,2014-08-30 08:01:00,
2014-08-30 04:02:00,72.7,67.6,30.36,NNW,341,0.0,0.0,84,0.00,,---,0.00,VWS V15.00,2014-08-30 08:02:00,
2014-08-30 04:03:00,72.7,67.6,30.36,NNW,341,0.0,0.0,84,0.00,,---,0.00,VWS V15.00,2014-08-30 08:03:00,
2014-08-30 04:05:00,72.7,67.6,30.36,NNW,341,0.0,0.0,84,0.00,,---,0.00,VWS V15.00,2014-08-30 08:05:00,
2014-08-30 04:06:00,72.7,67.6,30.36,NNW,341,0.0,0.0,84,0.00,,---,0.00,VWS V15.00,2014-08-30 08:06:00,
2014-08-30 04:07:00,72.7,67.6,30.36,NNW,341,0.0,0.0,84,0.00,,---,0.00,VWS V15.00,2014-08-30 08:07:00,
2014-08-30 04:08:00,72.7,67.6,30.36,NNW,341,0.0,0.0,84,0.00,,---,0.00,VWS V15.00,2014-08-30 08:08:00,
2014-08-30 04:09:00,72.7,67.6,30.36,NNW,341,0.0,0.0,84,0.00,,---,0.00,VWS V15.00,2014-08-30 08:09:00,
2014-08-30 04:10:00,72.7,67.6,30.36,NNW,341,0.0,0.0,84,0.00,,---,0.00,VWS V15.00,2014-08-30 08:10:00,
2014-08-30 04:11:00,72.5,67.4,30.36,NNW,341,0.0,0.0,84,0.00,,---,0.00,VWS V15.00,2014-08-30 08:11:00,
2014-08-30 04:12:00,72.5,67.4,30.36,NNW,341,0.0,0.0,84,0.00,,---,0.00,VWS V15.00,2014-08-30 08:12:00,
2014-08-30 04:14:00,72.5,67.4,30.36,NNW,341,0.0,0.0,84,0.00,,---,0.00,VWS V15.00,2014-08-30 08:14:00,
2014-08-30 04:15:00,72.5,67.4,30.36,NNW,341,0.0,0.0,84,0.00,,---,0.00,VWS V15.00,2014-08-30 08:15:00,
2014-08-30 04:16:00,72.5,67.4,30.36,NNW,341,0.0,0.0,84,0.00,,---,0.00,VWS V15.00,2014-08-30 08:16:00,
2014-08-30 04:17:00,72.5,67.4,30.36,NNW,341,0.0,0.0,84,0.00,,---,0.00,VWS V15.00,2014-08-30 08:17:00,
2014-08-30 04:19:00,72.5,67.4,30.36,North,353,0.0,0.0,84,0.00,,---,0.00,VWS V15.00,2014-08-30 08:19:00,
2014-08-30 04:20:00,72.5,67.4,30.36,North,353,0.0,0.0,84,0.00,,---,0.00,VWS V15.00,2014-08-30 08:20:00,
2014-08-30 04:21:00,72.5,67.4,30.36,North,353,0.0,0.0,84,0.00,,---,0.00,VWS V15.00,2014-08-30 08:21:00,
2014-08-30 04:22:00,72.5,67.4,30.36,NNW,341,0.0,0.0,84,0.00,,---,0.00,VWS V15.00,2014-08-30 08:22:00,
2014-08-30 04:24:00,72.5,67.7,30.36,NNW,341,0.0,0.0,85,0.00,,---,0.00,VWS V15.00,2014-08-30 08:24:00,
2014-08-30 04:25:00,72.5,67.7,30.36,NNW,341,0.0,0.0,85,0.00,,---,0.00,VWS V15.00,2014-08-30 08:25:00,
2014-08-30 04:26:00,72.5,67.7,30.36,NNW,341,0.0,0.0,85,0.00,,---,0.00,VWS V15.00,2014-08-30 08:26:00,
2014-08-30 04:27:00,72.5,67.7,30.36,NNW,341,0.0,0.0,85,0.00,,---,0.00,VWS V15.00,2014-08-30 08:27:00,
2014-08-30 04:29:00,72.5,67.7,30.36,NNW,341,0.0,0.0,85,0.00,,---,0.00,VWS V15.00,2014-08-30 08:29:00,
2014-08-30 04:30:00,72.5,67.7,30.36,NNW,341,0.0,0.0,85,0.00,,---,0.00,VWS V15.00,2014-08-30 08:30:00,
2014-08-30 04:31:00,72.5,67.7,30.36,NNW,341,0.0,0.0,85,0.00,,---,0.00,VWS V15.00,2014-08-30 08:31:00,
2014-08-30 04:32:00,72.5,67.7,30.36,NNW,341,0.0,0.0,85,0.00,,---,0.00,VWS V15.00,2014-08-30 08:32:00,
2014-08-30 04:34:00,72.5,67.7,30.36,North,3,0.0,0.0,85,0.00,,---,0.00,VWS V15.00,2014-08-30 08:34:00,
2014-08-30 04:35:00,72.5,67.7,30.36,North,353,0.0,0.0,85,0.00,,---,0.00,VWS V15.00,2014-08-30 08:35:00,
2014-08-30 04:36:00,72.5,67.7,30.36,North,353,0.0,0.0,85,0.00,,---,0.00,VWS V15.00,2014-08-30 08:36:00,
2014-08-30 04:37:00,72.5,67.7,30.36,North,353,0.0,0.0,85,0.00,,---,0.00,VWS V15.00,2014-08-30 08:37:00,
2014-08-30 04:39:00,72.5,67.7,30.36,North,353,0.0,0.0,85,0.00,,---,0.00,VWS V15.00,2014-08-30 08:39:00,
2014-08-30 04:40:00,72.5,67.7,30.36,North,353,0.0,0.0,85,0.00,,---,0.00,VWS V15.00,2014-08-30 08:40:00,
2014-08-30 04:41:00,72.3,67.6,30.36,North,353,0.0,0.0,85,0.00,,---,0.00,VWS V15.00,2014-08-30 08:41:00,
2014-08-30 04:42:00,72.3,67.6,30.36,North,353,0.0,0.0,85,0.00,,---,0.00,VWS V15.00,2014-08-30 08:42:00,
2014-08-30 04:44:00,72.3,67.6,30.36,North,1,0.0,0.0,85,0.00,,---,0.00,VWS V15.00,2014-08-30 08:44:00,
2014-08-30 04:45:00,72.3,67.6,30.36,North,0,0.0,0.0,85,0.00,,---,0.00,VWS V15.00,2014-08-30 08:45:00,
2014-08-30 04:46:00,72.3,67.6,30.36,North,0,0.0,0.0,85,0.00,,---,0.00,VWS V15.00,2014-08-30 08:46:00,
2014-08-30 04:47:00,72.3,67.6,30.36,North,0,0.0,0.0,85,0.00,,---,0.00,VWS V15.00,2014-08-30 08:47:00,
2014-08-30 04:49:00,72.3,67.6,30.36,North,0,0.0,0.0,85,0.00,,---,0.00,VWS V15.00,2014-08-30 08:49:00,
2014-08-30 04:50:00,72.3,67.6,30.36,North,0,0.0,0.0,85,0.00,,---,0.00,VWS V15.00,2014-08-30 08:50:00,
2014-08-30 04:51:00,72.3,67.6,30.36,North,0,0.0,0.0,85,0.00,,---,0.00,VWS V15.00,2014-08-30 08:51:00,
2014-08-30 04:52:00,72.3,67.6,30.36,North,0,0.0,0.0,85,0.00,,---,0.00,VWS V15.00,2014-08-30 08:52:00,
2014-08-30 04:54:00,72.1,67.0,30.36,North,0,0.0,0.0,84,0.00,,---,0.00,VWS V15.00,2014-08-30 08:54:00,
2014-08-30 04:55:00,72.1,67.0,30.36,North,0,0.0,0.0,84,0.00,,---,0.00,VWS V15.00,2014-08-30 08:55:00,
2014-08-30 04:56:00,72.1,67.0,30.36,North,0,0.0,0.0,84,0.00,,---,0.00,VWS V15.00,2014-08-30 08:56:00,
2014-08-30 04:57:00,72.1,67.0,30.36,North,0,0.0,0.0,84,0.00,,---,0.00,VWS V15.00,2014-08-30 08:57:00,
2014-08-30 04:59:00,72.1,67.4,30.36,North,0,0.0,0.0,85,0.00,,---,0.00,VWS V15.00,2014-08-30 08:59:00,
2014-08-30 05:00:00,72.1,67.4,30.36,North,0,0.0,0.0,85,0.00,,---,0.00,VWS V15.00,2014-08-30 09:00:00,
2014-08-30 05:01:00,72.1,67.4,30.36,North,0,0.0,0.0,85,0.00,,---,0.00,VWS V15.00,2014-08-30 09:01:00,
2014-08-30 05:02:00,72.1,67.4,30.36,North,1,0.0,0.0,85,0.00,,---,0.00,VWS V15.00,2014-08-30 09:02:00,
2014-08-30 05:04:00,72.1,67.7,30.36,North,1,0.0,0.0,86,0.00,,---,0.00,VWS V15.00,2014-08-30 09:04:00,
2014-08-30 05:05:00,72.1,67.7,30.36,North,1,0.0,0.0,86,0.00,,---,0.00,VWS V15.00,2014-08-30 09:05:00,
2014-08-30 05:06:00,72.1,67.7,30.36,North,1,0.0,0.0,86,0.00,,---,0.00,VWS V15.00,2014-08-30 09:06:00,